Starlink 6186

operational
NORAD ID: 56908 Int'l Des: 2023-083 Owner: SPXS Country: US Constellation: starlink
LEOCIRCULAR

About Starlink 6186

Description loading...

Live Position

Loading 3D Globe...

Upcoming Passes

Altitude History

Altitude vs Time

uPlot chart will show altitude changes over time

Two-Line Element Set

1 56908U 23083AJ 25307.95478683 .00002192 00000-0 17736-3 0 9992
2 56908 43.0064 32.2382 0001174 266.9192 93.1516 15.02528415132908
Epoch: Nov 3, 2025 • Age: 17 hours

Current Status

Altitude 561.2 km
Velocity 7.58 km/s
Sub-Earth Point -13.00°S, 57.74°W
Launch Date Jun 12, 2023
Age 2.3 years
Type internet

Technical Details

Classification Payload
Mass 305.00 kg
Dry Mass 290.00 kg
Total Mass 305.00 kg
Length 0.20 m
Diameter 2.80 m
Span 9.00 m
Shape Box + pan
Manufacturer SPXS
Bus Type Starlink
Phase Status In Orbit
Owner/State SPXS/US

Large Constellations

Loading constellations...